Skip Page Navigation
NASA JPL Caltech
NASA Logo - Jet Propulsion Laboratory + View the NASA Portal
+ Center for Near-Earth Object Studies
JPL Home Earth Solar System Stars & Galaxies Technology
JPL Solar System Dynamics
BODIES ORBITS EPHEMERIDES TOOLS PHYSICAL DATA DISCOVERY FAQ SITE MAP
JPL Small-Body Database Browser
Search: [ help ]  
135364 (2001 TL123)
Classification: Main-belt Asteroid          SPK-ID: 2135364
Ephemeris | Orbit Diagram | Orbital Elements | Mission Design | Physical Parameters | Discovery Circumstances | Close-Approach Data ]

[ show orbit diagram ]
Orbital Elements at Epoch 2459200.5 (2020-Dec-17.0) TDB
Reference: JPL 16 (heliocentric ecliptic J2000)
 Element Value Uncertainty (1-sigma)   Units 
e .07164904612897573 5.2862e-08  
a 3.077391535234392 3.0345e-08 au
q 2.856899367169464 1.6027e-07 au
i 8.418409981764444 4.6064e-06 deg
node 266.6749129914235 4.0337e-05 deg
peri 42.63379806721759 6.0064e-05 deg
M 255.3729029762554 4.9456e-05 deg
tp 2459773.578656377749
(2022-Jul-13.07865638)
0.00027589 TDB
period 1971.844026688127
5.40
2.9166e-05
7.985e-08
d
yr
n .1825702211369372 2.7004e-09 deg/d
Q 3.297883703299321 3.252e-08 au
  Orbit Determination Parameters
   # obs. used (total)      404  
   data-arc span      7080 days (19.38 yr)  
   first obs. used      2001-09-24  
   last obs. used      2021-02-11  
   planetary ephem.      DE441  
   SB-pert. ephem.      SB441-N16  
   condition code      0  
   norm. resid. RMS      .57359  
   source      ORB  
   producer      Otto Matic  
   solution date      2021-Apr-13 18:12:40  

Additional Information
 Earth MOID = 1.84669 au 
 Jupiter MOID = 1.88778 au 
 T_jup = 3.208 
[ show covariance matrix ]

Ephemeris | Orbit Diagram | Orbital Elements | Mission Design | Physical Parameters | Discovery Circumstances | Close-Approach Data ]

Physical Parameter Table
Parameter Symbol Value Units Sigma Reference Notes
absolute magnitude H 15.02   n/a MPCxxxxx  
diameter diameter 4.240 km 1.012 urn:nasa:pds:neowise_diameters_albedos::2.0[mainbelt] (http://adsabs.harvard.edu/abs/2011ApJ...741...68M)  
geometric albedo albedo 0.130   0.026 urn:nasa:pds:neowise_diameters_albedos::2.0[mainbelt] (http://adsabs.harvard.edu/abs/2011ApJ...741...68M)  

135364 (2001 TL123)          Discovered 2001-Oct-12 by NEAT at Haleakala
Reference: 20060907/Numbers.arcLast Updated: 2006-09-10

[ hide close-approach data ]
Close-Approach Data   ...sorted by Date/Time (TDB)
Date/Time (TDB) Time Uncertainty
(days_HH:MM)
Body Nominal Distance (au) Minimum Distance (au) Maximum Distance (au) V-relative (km/s) V-infinity (km/s) JD (TDB) Time Uncertainty (minutes) Semi-major axis (km) Semi-minor axis (km) range-LOV angle (deg) N-sigma BP Orbit Ref. Reference Modified
1954-Jul-20 01:08 00:03 Jupiter 1.91042833151612 1.91042757960932 1.91042908342478 3.73629061554347 3.61567861599452 2434943.547002824 2.74102305040677 140.714101573232 26.249054425891 78.992453493771 3406009.07630562 T 16 CATAB v2.0f-lin.ifort 2021-Apr-13 18:12:41 2021-Apr-13 18:12
1964-May-14 10:48 00:02 Jupiter 1.98799382494649 1.98799282877961 1.9879948211154 3.69404298315252 3.57684436220393 2438529.950202132 2.36884413123397 126.667049470054 20.150413126424 -70.8967147927278 2895543.3151289 T 16 CATAB v2.0f-lin.ifort 2021-Apr-13 18:12:41 2021-Apr-13 18:12
2013-Dec-24 06:01 < 00:01 Jupiter 1.92482631543401 1.92482587495122 1.92482675591681 3.71421548889737 3.59378545573392 2456650.750970189 0.239783290900029 75.936366726591 19.7867985805956 -88.1854234697738 3383489.17286382 T 16 CATAB v2.0f-lin.ifort 2021-Apr-13 18:12:41 2021-Apr-13 18:12
2023-Oct-23 01:28 < 00:01 Jupiter 1.97302128097397 1.9730207265645 1.97302183538344 3.73171277437775 3.61484103302665 2460240.561431095 0.456660868350721 52.8994688439672 21.9740861553231 -75.8307597355093 3056385.02486852 T 16 CATAB v2.0f-lin.ifort 2021-Apr-13 18:12:41 2021-Apr-13 18:12
2073-May-31 04:31 00:03 Jupiter 1.94135178291739 1.94135101043943 1.94135255539602 3.68323269412856 3.56280676247735 2478358.688236168 2.52862593672987 107.760452383921 32.3163082808723 78.1732635129744 3316802.08560943 T 16 CATAB v2.0f-lin.ifort 2021-Apr-13 18:12:41 2021-Apr-13 18:12
2083-Apr-01 20:55 00:03 Jupiter 1.95809522856334 1.95809442648189 1.9580960306488 3.77224974679424 3.65577880840022 2481951.371511607 3.12411382407159 182.578196381192 20.5505216116512 -79.094172195253 3248493.08438345 T 16 CATAB v2.0f-lin.ifort 2021-Apr-13 18:12:41 2021-Apr-13 18:12
2132-Nov-07 01:28 00:05 Jupiter 1.96003147487285 1.9600299610965 1.96003298865075 3.64357692606472 3.52297573234572 2500067.561205652 5.16739531123487 137.369819979157 50.4924648075653 61.7870520962776 3255306.77396378 T 16 CATAB v2.0f-lin.ifort 2021-Apr-13 18:12:41 2021-Apr-13 18:12
2142-Sep-10 23:46 00:06 Jupiter 1.94337972099343 1.9433784187134 1.94338102329356 3.81236630568277 3.69627330910148 2503662.490391764 5.79370043270302 344.427175185214 19.8974951002962 -79.4985011975781 3301284.81818835 T 16 CATAB v2.0f-lin.ifort 2021-Apr-13 18:12:41 2021-Apr-13 18:12
2192-Apr-15 23:52 00:08 Jupiter 1.98066678263789 1.98066439276166 1.98066917251491 3.59540504062468 3.47442759871252 2521777.494443466 7.8189233349354 141.168734253853 77.0528264407303 32.5876639608573 3206281.00015618 T 16 CATAB v2.0f-lin.ifort 2021-Apr-13 18:12:41 2021-Apr-13 18:12

Alternate Designations
 2001 TL123 = 2005 KU6 
Ephemeris | Orbit Diagram | Orbital Elements | Mission Design | Physical Parameters | Discovery Circumstances | Close-Approach Data ]
ABOUT SSD CREDITS/AWARDS PRIVACY/COPYRIGHT GLOSSARY LINKS
FirstGov 2021-Jun-15 02:04 UT
(server date/time)  
NASA Home Page
Site Manager:   Ryan S. Park
Webmaster  Alan B. Chamberlin